Terug naar catalogus

STARLINK-4649

ActiefCommunicatieVLEO
NORAD 53831·PAYLOAD·🇺🇸 United States

Gelanceerd Sep 19, 2022 vanaf Cape Canaveral Space Force Station

Loading…

Volgende Passages (komende 24 uur)

TLE

VersSource: CelesTrak SupGP

Epoch: Sep 14, 2026, 21:00 UTC

1 53831C 22114P   26257.87548611 -.00027491  00000+0 -81225-3 0  2574
2 53831  53.1607 165.6808 0001301  87.5566 269.5962 15.34403334    10

Volg STARLINK-4649 in realtime met AllMySat

Download on the App Store